Weather History for KCWI - February, 2012

Change the Weather History Date:

Monday, February 13, 2012

  Actual Average Record
Temperature  
Mean Temperature 21 °F -  
Max Temperature 30 °F 34 °F 58 °F (1990)
Min Temperature 12 °F 16 °F -12 °F (1986)
Degree Days  
Heating Degree Days 44    
Moisture  
Dew Point 19 °F    
Average Humidity 76    
Maximum Humidity 93    
Minimum Humidity 53    
Precipitation  
Precipitation 0.00 in - - ()
Sea Level Pressure  
Sea Level Pressure 30.04 in    
Wind  
Wind Speed 6 mph (South)    
Max Wind Speed 16 mph    
Max Gust Speed -    
Visibility 8 miles    
Events      
Averages and records for this station are not official NWS values.
T = Trace of Precipitation, MM = Missing Value Source: NWS Daily Summary

Daily Weather History Graph

Daily Weather History Graph

Search for Another Location

Airport or City:

Trip Planner

Search our weather history database for the weather conditions in past years. The results will help you decide how hot, cold, wet, or windy it might be!

Date:

Astronomy

Feb. 13, 2012 Rise Set
Actual Time 7:00 AM CST 5:31 PM CST
Civil Twilight 6:31 AM CST 6:00 PM CST
Nautical Twilight 5:58 AM CST 6:32 PM CST
Astronomical Twilight 5:26 AM CST 7:05 PM CST
Moon No Moon Rise 9:51 AM CST (2/13)
Length of Visible Light 11h 28m
Length of Day
10h 31m
Waning Gibbous, 61% of the Moon is Illuminated
Feb 13
Waning Gibbous
Feb 14
Last Quarter
Feb 21
New
Feb 29
First Quarter
Mar 8
Full

Hourly Weather History & Observations

Time (CST) Temp. Windchill Dew Point Humidity Pressure Visibility Wind Dir Wind Speed Gust Speed Precip Events Conditions
12:15 AM 15.8 °F - 3.2 °F 58% 30.23 in 10.0 mi Calm Calm - N/A   Clear
12:35 AM 17.6 °F 10.7 °F 5.0 °F 58% 30.23 in 10.0 mi South 4.6 mph - N/A   Clear
12:55 AM 17.6 °F 12.3 °F 3.2 °F 53% 30.23 in 10.0 mi South 3.5 mph - N/A   Clear
1:15 AM 15.8 °F 10.2 °F 5.0 °F 62% 30.22 in 10.0 mi South 3.5 mph - N/A   Clear
1:35 AM 17.6 °F - 5.0 °F 58% 30.22 in 10.0 mi Calm Calm - N/A   Clear
1:55 AM 15.8 °F - 6.8 °F 68% 30.21 in 10.0 mi Calm Calm - N/A   Clear
2:15 AM 12.2 °F - 3.2 °F 67% 30.21 in 10.0 mi Calm Calm - N/A   Clear
2:35 AM 14.0 °F 8.2 °F 6.8 °F 73% 30.19 in 10.0 mi SE 3.5 mph - N/A   Mostly Cloudy
2:55 AM 15.8 °F 10.2 °F 10.4 °F 79% 30.18 in 10.0 mi SE 3.5 mph - N/A   Overcast
3:15 AM 19.4 °F 12.8 °F 10.4 °F 68% 30.18 in 10.0 mi SSE 4.6 mph - N/A   Overcast
3:35 AM 21.2 °F 14.9 °F 10.4 °F 63% 30.16 in 10.0 mi SSE 4.6 mph - N/A   Overcast
3:55 AM 21.2 °F 16.4 °F 10.4 °F 63% 30.16 in 10.0 mi SSE 3.5 mph - N/A   Overcast
4:15 AM 21.2 °F 16.4 °F 10.4 °F 63% 30.16 in 10.0 mi SE 3.5 mph - N/A   Overcast
4:35 AM 21.2 °F 16.4 °F 12.2 °F 68% 30.15 in 10.0 mi SSE 3.5 mph - N/A   Overcast
4:55 AM 21.2 °F 14.9 °F 12.2 °F 68% 30.15 in 10.0 mi SE 4.6 mph - N/A   Overcast
5:15 AM 23.0 °F 17.0 °F 10.4 °F 59% 30.15 in 10.0 mi SSE 4.6 mph - N/A   Overcast
5:35 AM 23.0 °F 17.0 °F 10.4 °F 59% 30.15 in 10.0 mi SSE 4.6 mph - N/A   Overcast
5:55 AM 23.0 °F 15.8 °F 12.2 °F 63% 30.15 in 10.0 mi South 5.8 mph - N/A   Overcast
6:15 AM 24.8 °F 17.9 °F 12.2 °F 59% 30.14 in 10.0 mi SSE 5.8 mph - N/A   Overcast
6:35 AM 24.8 °F 16.9 °F 10.4 °F 54% 30.14 in 10.0 mi SSE 6.9 mph - N/A   Overcast
6:55 AM 24.8 °F 17.9 °F 12.2 °F 59% 30.13 in 10.0 mi SSE 5.8 mph - N/A   Overcast
7:15 AM 24.8 °F 16.9 °F 12.2 °F 59% 30.12 in 10.0 mi SSE 6.9 mph - N/A   Overcast
7:35 AM 24.8 °F 16.1 °F 12.2 °F 59% 30.13 in 10.0 mi South 8.1 mph - N/A   Overcast
7:55 AM 24.8 °F 19.1 °F 12.2 °F 59% 30.14 in 10.0 mi SSW 4.6 mph - N/A   Overcast
8:15 AM 26.6 °F 20.0 °F 12.2 °F 55% 30.14 in 10.0 mi SW 5.8 mph - N/A   Overcast
8:35 AM 26.6 °F 15.2 °F 15.8 °F 64% 30.13 in 5.0 mi SW 13.8 mph - N/A   Mostly Cloudy
8:55 AM 26.6 °F 18.2 °F 19.4 °F 74% 30.12 in 1.2 mi South 8.1 mph - N/A   Overcast
9:15 AM 26.6 °F 19.1 °F 21.2 °F 80% 30.10 in 3.0 mi South 6.9 mph - N/A   Overcast
9:35 AM 26.6 °F 17.5 °F 23.0 °F 86% 30.08 in 5.0 mi SSE 9.2 mph - N/A   Overcast
9:55 AM 26.6 °F 15.7 °F 24.8 °F 93% 30.08 in 7.0 mi SSE 12.7 mph - N/A   Overcast
10:15 AM 26.6 °F 16.8 °F 24.8 °F 93% 30.07 in 4.0 mi SSE 10.4 mph - N/A   Overcast
10:35 AM 28.4 °F 18.0 °F 24.8 °F 86% 30.06 in 5.0 mi SSE 12.7 mph - N/A   Overcast
10:55 AM 28.4 °F 18.0 °F 24.8 °F 86% 30.06 in 8.0 mi SSE 12.7 mph - N/A   Overcast
11:15 AM 28.4 °F 18.5 °F 21.2 °F 74% 30.05 in 9.0 mi South 11.5 mph - N/A   Overcast
11:35 AM 28.4 °F 19.1 °F 21.2 °F 74% 30.03 in 10.0 mi South 10.4 mph - N/A   Overcast
11:55 AM 30.2 °F 21.3 °F 19.4 °F 64% 30.02 in 10.0 mi South 10.4 mph - N/A   Overcast
12:15 PM 30.2 °F 18.9 °F 21.2 °F 69% 30.01 in 10.0 mi South 16.1 mph - N/A   Overcast
12:35 PM 30.2 °F 20.2 °F 24.8 °F 80% 30.00 in 6.0 mi South 12.7 mph - N/A   Overcast
12:55 PM 30.2 °F 20.8 °F 24.8 °F 80% 29.98 in 10.0 mi South 11.5 mph - N/A   Overcast
1:15 PM 30.2 °F 19.8 °F 26.6 °F 86% 29.96 in 9.0 mi South 13.8 mph - N/A   Overcast
1:35 PM 30.2 °F 19.8 °F 26.6 °F 86% 29.95 in 10.0 mi SSE 13.8 mph - N/A   Overcast
1:55 PM 30.2 °F 21.3 °F 26.6 °F 86% 29.94 in 7.0 mi South 10.4 mph - N/A   Overcast
2:15 PM 30.2 °F 19.8 °F 26.6 °F 86% 29.93 in 7.0 mi South 13.8 mph - N/A   Overcast
2:35 PM 30.2 °F 20.2 °F 26.6 °F 86% 29.93 in 8.0 mi SSE 12.7 mph - N/A   Overcast
2:55 PM 30.2 °F 21.3 °F 26.6 °F 86% 29.92 in 4.0 mi South 10.4 mph - N/A   Overcast
3:15 PM 30.2 °F 20.8 °F 28.4 °F 93% 29.91 in 5.0 mi South 11.5 mph - N/A   Overcast
3:35 PM 30.2 °F 22.6 °F 28.4 °F 93% 29.91 in 5.0 mi South 8.1 mph - N/A   Overcast
3:55 PM 30.2 °F 22.6 °F 28.4 °F 93% 29.90 in 9.0 mi South 8.1 mph - N/A   Overcast
4:15 PM 30.2 °F 22.6 °F 28.4 °F 93% 29.89 in 5.0 mi South 8.1 mph - N/A   Overcast
4:35 PM 30.2 °F 23.4 °F 28.4 °F 93% 29.89 in 1.8 mi South 6.9 mph - N/A   Overcast
4:55 PM 30.2 °F 21.9 °F 28.4 °F 93% 29.88 in 2.0 mi South 9.2 mph - N/A   Overcast
5:15 PM 30.2 °F 22.6 °F 28.4 °F 93% 29.87 in 5.0 mi South 8.1 mph - N/A   Overcast
5:35 PM 30.2 °F 21.9 °F 28.4 °F 93% 29.88 in 4.0 mi South 9.2 mph - N/A   Overcast
5:55 PM 30.2 °F 21.3 °F 28.4 °F 93% 29.88 in 7.0 mi South 10.4 mph - N/A   Overcast
6:15 PM 30.2 °F 20.8 °F 28.4 °F 93% 29.87 in 6.0 mi South 11.5 mph - N/A   Overcast
6:35 PM 30.2 °F 22.6 °F 28.4 °F 93% 29.87 in 5.0 mi South 8.1 mph - N/A   Overcast
6:55 PM 30.2 °F 21.9 °F 28.4 °F 93% 29.87 in 6.0 mi South 9.2 mph - N/A   Overcast
7:15 PM 30.2 °F 21.3 °F 26.6 °F 86% 29.87 in 8.0 mi South 10.4 mph - N/A   Overcast
7:35 PM 30.2 °F 20.8 °F 26.6 °F 86% 29.86 in 8.0 mi South 11.5 mph - N/A   Overcast
7:55 PM 30.2 °F 20.8 °F 26.6 °F 86% 29.86 in 7.0 mi South 11.5 mph - N/A   Overcast
8:15 PM 30.2 °F 21.3 °F 26.6 °F 86% 29.86 in 8.0 mi South 10.4 mph - N/A   Overcast
8:35 PM 30.2 °F 20.8 °F 26.6 °F 86% 29.85 in 9.0 mi SSW 11.5 mph - N/A   Overcast
8:55 PM 30.2 °F 21.3 °F 26.6 °F 86% 29.85 in 7.0 mi South 10.4 mph - N/A   Overcast
9:15 PM 30.2 °F 22.6 °F 28.4 °F 93% 29.85 in 6.0 mi South 8.1 mph - N/A   Overcast
9:35 PM 30.2 °F 22.6 °F 28.4 °F 93% 29.85 in 7.0 mi South 8.1 mph - N/A   Overcast
9:55 PM 30.2 °F 21.3 °F 26.6 °F 86% 29.85 in 7.0 mi South 10.4 mph - N/A   Overcast
10:15 PM 30.2 °F 21.3 °F 26.6 °F 86% 29.84 in 10.0 mi SSW 10.4 mph - N/A   Overcast
10:35 PM 30.2 °F 20.8 °F 26.6 °F 86% 29.84 in 9.0 mi SSW 11.5 mph - N/A   Overcast
10:55 PM 30.2 °F 20.8 °F 26.6 °F 86% 29.84 in 9.0 mi SSW 11.5 mph - N/A   Overcast
11:35 PM 30.2 °F 21.3 °F 26.6 °F 86% 29.83 in 6.0 mi SSW 10.4 mph - N/A   Overcast
11:55 PM 30.2 °F 22.6 °F 26.6 °F 86% 29.83 in 4.0 mi SSW 8.1 mph - N/A   Overcast